{"data":{"norad_id":43481,"intl_designator":"2018-047F","name":"IRIDIUM 110","alt_names":[],"object_type":"PAYLOAD","status":"ACTIVE","operator":null,"country":"US","launch_date":"2018-05-22","launch_site_code":"AFWTR","launch_vehicle":null,"mission":null,"orbit_class":"UNKNOWN","rcs_meters":null,"size_class":null,"mass_kg":null,"dimensions":null,"purposes":["comms"],"wikipedia_slug":null,"has_3d_model":false,"image_url":null,"decayed_at":null,"tle_current":{"epoch":"2026-09-20T03:20:30.272928Z","epoch_age_seconds":46782,"freshness":"FRESH","line1":"1 43481U 18047F   26263.13923927  .00000068  00000+0  17083-4 0  9991","line2":"2 43481  86.3951  48.6976 0002337  95.3133 264.8329 14.34217968436083","mean_motion":14.34217968,"eccentricity":0.0002337,"inclination_deg":86.3951,"raan_deg":48.6976,"arg_perigee_deg":95.3133,"mean_anomaly_deg":264.8329,"bstar":1.7083e-5,"rev_number":43608,"period_min":100.40314876323,"perigee_km":775.99411797433,"apogee_km":779.33874049715,"semimajor_km":7155.8034292357,"source":"CELESTRAK","updated_at":"2026-09-20T09:00:36.331256Z"}}}